DLH4748 EIDW-KJFK

Flight info

Callsign DLH4748
Flight time N/A
Altitude 38000
Route PELIG2J PELIG DCT DOGAL/M081F380 NATA ALLRY/N0465F380 N468A TUSKY DCT PLYMM PARCH3
Aircraft A346/H-SDE2E3FGHIJ3J4J5M1RWXY/LB1D1

Departure

Time 2026-05-01 11:59
Airport Dublin Airport (EIDW)

Arrival

Time N/A
Airport John F. Kennedy International Airport (KJFK)
Time Latitude Longitude Altitude Speed Heading
2026-05-01 10:53 53.42391 -6.24464 233 ft 0 kts 135°
2026-05-01 11:48 53.42484 -6.24488 232 ft 0 kts 135°
2026-05-01 11:48 53.42479 -6.24580 233 ft 0 kts 135°
2026-05-01 11:51 53.42479 -6.24579 233 ft 0 kts 135°
2026-05-01 11:51 53.42469 -6.24571 233 ft 4 kts 169°
2026-05-01 11:52 53.42438 -6.24594 233 ft 12 kts 225°
2026-05-01 11:52 53.42383 -6.24786 233 ft 19 kts 269°
2026-05-01 11:52 53.42474 -6.24942 236 ft 21 kts 334°
2026-05-01 11:52 53.42615 -6.25043 236 ft 23 kts 336°
2026-05-01 11:53 53.42756 -6.25180 237 ft 24 kts 323°
2026-05-01 11:53 53.42907 -6.25321 235 ft 25 kts 335°
2026-05-01 11:53 53.43074 -6.25445 233 ft 27 kts 336°
2026-05-01 11:53 53.43235 -6.25562 236 ft 24 kts 336°
2026-05-01 11:54 53.43348 -6.25645 236 ft 12 kts 336°
2026-05-01 11:54 53.43408 -6.25601 235 ft 13 kts 84°
2026-05-01 11:54 53.43401 -6.25441 235 ft 15 kts 95°
2026-05-01 11:54 53.43392 -6.25263 233 ft 16 kts 95°
2026-05-01 11:55 53.43381 -6.25054 233 ft 20 kts 95°
2026-05-01 11:55 53.43367 -6.24789 233 ft 25 kts 95°
2026-05-01 11:55 53.43350 -6.24489 233 ft 26 kts 95°
2026-05-01 11:55 53.43332 -6.24182 233 ft 27 kts 96°
2026-05-01 11:56 53.43322 -6.23963 233 ft 16 kts 88°
2026-05-01 11:56 53.43386 -6.23865 233 ft 14 kts
2026-05-01 11:56 53.43478 -6.23876 234 ft 9 kts 312°
2026-05-01 11:56 53.43497 -6.23983 235 ft 1 kts 276°
2026-05-01 11:57 53.43497 -6.23984 235 ft 0 kts 276°
2026-05-01 11:58 53.43512 -6.24292 233 ft 59 kts 275°
2026-05-01 11:58 53.43571 -6.25358 233 ft 120 kts 275°
2026-05-01 11:58 53.43776 -6.29180 420 ft 192 kts 274°
2026-05-01 11:59 53.43898 -6.31439 1026 ft 195 kts 275°
2026-05-01 11:59 53.44317 -6.33605 1756 ft 198 kts 298°
2026-05-01 11:59 53.45277 -6.35278 2427 ft 204 kts 322°
2026-05-01 12:00 53.47693 -6.38245 3232 ft 228 kts 314°
2026-05-01 12:00 53.48784 -6.40308 3569 ft 245 kts 304°
2026-05-01 12:00 53.50807 -6.45325 4531 ft 268 kts 290°
2026-05-01 12:01 53.51153 -6.48364 5245 ft 265 kts 261°
2026-05-01 12:01 53.50618 -6.51280 6008 ft 260 kts 238°
2026-05-01 12:01 53.49736 -6.53932 6805 ft 261 kts 236°
2026-05-01 12:01 53.48836 -6.56600 7564 ft 264 kts 236°
2026-05-01 12:02 53.47937 -6.59307 8362 ft 267 kts 236°
2026-05-01 12:02 53.47037 -6.62051 8906 ft 270 kts 236°
2026-05-01 12:02 53.46073 -6.64768 9198 ft 274 kts 233°
2026-05-01 12:02 53.45041 -6.67509 9962 ft 276 kts 232°
2026-05-01 12:03 53.44021 -6.70223 10784 ft 277 kts 232°
2026-05-01 12:03 53.42972 -6.72989 11281 ft 290 kts 232°
2026-05-01 12:03 53.41863 -6.75914 11755 ft 303 kts 232°
2026-05-01 12:03 53.40711 -6.78955 12247 ft 315 kts 232°
2026-05-01 12:04 53.39508 -6.82130 12752 ft 327 kts 233°
2026-05-01 12:04 53.38264 -6.85412 13256 ft 339 kts 233°
2026-05-01 12:04 53.36975 -6.88810 13772 ft 351 kts 233°
2026-05-01 12:04 53.35645 -6.92315 14251 ft 362 kts 233°
2026-05-01 12:05 53.34272 -6.95928 14707 ft 372 kts 233°
2026-05-01 12:05 53.31448 -7.03360 15648 ft 380 kts 233°
2026-05-01 12:05 53.30022 -7.07106 16130 ft 382 kts 232°
2026-05-01 12:06 53.28601 -7.10831 16607 ft 385 kts 232°
2026-05-01 12:06 53.27151 -7.14619 17115 ft 388 kts 232°
2026-05-01 12:06 53.25685 -7.18443 17626 ft 391 kts 232°
2026-05-01 12:06 53.24212 -7.22275 18143 ft 394 kts 232°
2026-05-01 12:07 53.22719 -7.26154 18628 ft 397 kts 231°
2026-05-01 12:07 53.21379 -7.30166 19042 ft 407 kts 242°
2026-05-01 12:07 53.20682 -7.34881 19510 ft 421 kts 258°
2026-05-01 12:07 53.20789 -7.39785 19956 ft 436 kts 274°
2026-05-01 12:08 53.21443 -7.44784 20459 ft 442 kts 277°
2026-05-01 12:08 53.22157 -7.49791 20943 ft 444 kts 278°
2026-05-01 12:08 53.22877 -7.54834 21433 ft 447 kts 277°
2026-05-01 12:08 53.23595 -7.59927 21930 ft 450 kts 277°
2026-05-01 12:09 53.24306 -7.65047 22443 ft 453 kts 277°
2026-05-01 12:09 53.25014 -7.70200 22964 ft 456 kts 277°
2026-05-01 12:09 53.25722 -7.75400 23487 ft 459 kts 277°
2026-05-01 12:09 53.26419 -7.80551 23957 ft 462 kts 277°
2026-05-01 12:10 53.27129 -7.85828 24409 ft 465 kts 277°
2026-05-01 12:10 53.28552 -7.96462 25320 ft 470 kts 276°
2026-05-01 12:10 53.29265 -8.01829 25790 ft 473 kts 276°
2026-05-01 12:11 53.30690 -8.12613 26755 ft 476 kts 276°
2026-05-01 12:11 53.31404 -8.18047 27243 ft 477 kts 276°
2026-05-01 12:11 53.32116 -8.23487 27748 ft 479 kts 276°
2026-05-01 12:12 53.32826 -8.28929 28273 ft 479 kts 276°
2026-05-01 12:12 53.33538 -8.34413 28793 ft 480 kts 276°
2026-05-01 12:12 53.34237 -8.39816 29316 ft 480 kts 276°
2026-05-01 12:12 53.34943 -8.45291 29866 ft 481 kts 275°
2026-05-01 12:13 53.35645 -8.50761 30368 ft 480 kts 275°
2026-05-01 12:13 53.36348 -8.56256 30837 ft 480 kts 275°
2026-05-01 12:13 53.37046 -8.61732 31313 ft 479 kts 275°
2026-05-01 12:13 53.37739 -8.67192 31798 ft 478 kts 275°
2026-05-01 12:14 53.38428 -8.72642 32294 ft 476 kts 275°
2026-05-01 12:14 53.39112 -8.78076 32790 ft 475 kts 275°
2026-05-01 12:14 53.39790 -8.83483 33307 ft 473 kts 274°
2026-05-01 12:14 53.40461 -8.88858 33831 ft 470 kts 274°
2026-05-01 12:15 53.41130 -8.94234 34315 ft 467 kts 274°
2026-05-01 12:15 53.41775 -8.99476 34756 ft 464 kts 275°
2026-05-01 12:15 53.42432 -9.04837 35226 ft 460 kts 275°
2026-05-01 12:15 53.43065 -9.10018 35688 ft 456 kts 275°
2026-05-01 12:16 53.43700 -9.15217 36165 ft 451 kts 276°
2026-05-01 12:16 53.44326 -9.20366 36647 ft 446 kts 276°
2026-05-01 12:16 53.44942 -9.25443 37141 ft 440 kts 277°
2026-05-01 12:16 53.45546 -9.30437 37630 ft 433 kts 277°
2026-05-01 12:17 53.46146 -9.35421 37817 ft 436 kts 277°
2026-05-01 12:17 53.46748 -9.40430 37904 ft 438 kts 277°
2026-05-01 12:17 53.47351 -9.45464 38027 ft 441 kts 277°
2026-05-01 12:17 53.47958 -9.50549 38088 ft 445 kts 278°
2026-05-01 12:18 53.49185 -9.60888 38093 ft 456 kts 278°
2026-05-01 12:18 53.50424 -9.71413 38091 ft 465 kts 278°
2026-05-01 12:19 53.51689 -9.82238 38103 ft 476 kts 278°
2026-05-01 12:19 53.52964 -9.93259 38090 ft 481 kts 278°
2026-05-01 12:20 53.54228 -10.04260 38090 ft 481 kts 278°
2026-05-01 12:20 53.55491 -10.15354 38091 ft 481 kts 278°
2026-05-01 12:21 53.56740 -10.26429 38093 ft 481 kts 278°
2026-05-01 12:21 53.57840 -10.36272 38084 ft 481 kts 278°
2026-05-01 12:22 53.59062 -10.47298 38085 ft 481 kts 278°
2026-05-01 12:22 53.60281 -10.58399 38085 ft 481 kts 278°
2026-05-01 12:23 53.61489 -10.69491 38081 ft 481 kts 278°
2026-05-01 12:23 53.62678 -10.80511 38078 ft 480 kts 278°
2026-05-01 12:24 53.63863 -10.91600 38074 ft 480 kts 278°
2026-05-01 12:24 53.65044 -11.02751 38074 ft 480 kts 278°
2026-05-01 12:25 53.66790 -11.19426 38073 ft 480 kts 278°
2026-05-01 12:26 53.67940 -11.30541 38070 ft 481 kts 278°
2026-05-01 12:26 53.69649 -11.47266 38063 ft 481 kts 278°
2026-05-01 12:27 53.71337 -11.64016 38063 ft 482 kts 277°
2026-05-01 12:28 53.72997 -11.80748 38057 ft 482 kts 277°
2026-05-01 12:29 53.74639 -11.97542 38059 ft 482 kts 278°
2026-05-01 12:29 53.76252 -12.14293 38053 ft 482 kts 278°
2026-05-01 12:30 53.77854 -12.31167 38049 ft 482 kts 278°
2026-05-01 12:31 53.78905 -12.42400 38047 ft 482 kts 278°
2026-05-01 12:31 53.79771 -12.51737 38043 ft 483 kts 277°
2026-05-01 12:32 53.80972 -12.64815 38048 ft 483 kts 277°
2026-05-01 12:32 53.82331 -12.79814 38048 ft 484 kts 277°
2026-05-01 12:33 53.83341 -12.91115 38053 ft 484 kts 277°
2026-05-01 12:33 53.84337 -13.02427 38052 ft 485 kts 277°
2026-05-01 12:34 53.85324 -13.13738 38055 ft 485 kts 277°
2026-05-01 12:34 53.86297 -13.24996 38062 ft 485 kts 277°
2026-05-01 12:35 53.87269 -13.36388 38064 ft 485 kts 277°
2026-05-01 12:35 53.88231 -13.47764 38065 ft 485 kts 277°
2026-05-01 12:36 53.89179 -13.59127 38078 ft 485 kts 277°
2026-05-01 12:36 53.90111 -13.70417 38078 ft 485 kts 277°
2026-05-01 12:37 53.91037 -13.81766 38084 ft 485 kts 277°
2026-05-01 12:37 53.91950 -13.93101 38086 ft 484 kts 277°
2026-05-01 12:38 53.92860 -14.04544 38093 ft 494 kts 277°
2026-05-01 12:38 53.93780 -14.16253 38097 ft 501 kts 277°
2026-05-01 12:39 53.94692 -14.28010 38103 ft 501 kts 277°
2026-05-01 12:39 53.95590 -14.39762 38111 ft 501 kts 277°
2026-05-01 12:40 53.96473 -14.51453 38115 ft 501 kts 277°
2026-05-01 12:40 53.97349 -14.63218 38113 ft 501 kts 277°
2026-05-01 12:41 53.98214 -14.75001 38122 ft 501 kts 277°
2026-05-01 12:41 53.99064 -14.86761 38129 ft 500 kts 277°
2026-05-01 12:42 53.99876 -14.98535 38138 ft 499 kts 276°
2026-05-01 12:42 54.00242 -15.10382 38136 ft 499 kts 272°
2026-05-01 12:43 54.00464 -15.22087 38140 ft 498 kts 272°
2026-05-01 12:43 54.00675 -15.33866 38148 ft 497 kts 272°
2026-05-01 12:44 54.00878 -15.45624 38149 ft 496 kts 272°
2026-05-01 12:45 54.01254 -15.69221 38162 ft 500 kts 273°
2026-05-01 12:45 54.01425 -15.81058 38167 ft 499 kts 273°
2026-05-01 12:46 54.01586 -15.92887 38167 ft 499 kts 273°
2026-05-01 12:46 54.01733 -16.04622 38169 ft 498 kts 273°
2026-05-01 12:47 54.01871 -16.16430 38176 ft 498 kts 273°
2026-05-01 12:47 54.01997 -16.28229 38177 ft 498 kts 273°
2026-05-01 12:48 54.02110 -16.40030 38182 ft 497 kts 273°
2026-05-01 12:48 54.02211 -16.51730 38184 ft 497 kts 273°
2026-05-01 12:49 54.02303 -16.63573 38190 ft 497 kts 272°
2026-05-01 12:49 54.02382 -16.75371 38191 ft 497 kts 272°
2026-05-01 12:50 54.02445 -16.86334 38192 ft 496 kts 272°
2026-05-01 12:50 54.02500 -16.97701 38198 ft 496 kts 272°
2026-05-01 12:51 54.02545 -17.09462 38199 ft 496 kts 272°
2026-05-01 12:52 54.02591 -17.27074 38202 ft 495 kts 272°
2026-05-01 12:52 54.02612 -17.44681 38209 ft 494 kts 272°
2026-05-01 12:53 54.02606 -17.62266 38211 ft 493 kts 272°
2026-05-01 12:54 54.02589 -17.73894 38217 ft 493 kts 272°
2026-05-01 12:54 54.02542 -17.91391 38220 ft 492 kts 272°
2026-05-01 12:55 54.02470 -18.08884 38226 ft 492 kts 272°
2026-05-01 12:56 54.02408 -18.20535 38228 ft 492 kts 272°
2026-05-01 12:56 54.02334 -18.32205 38228 ft 492 kts 271°
2026-05-01 12:57 54.02249 -18.43787 38223 ft 492 kts 271°
2026-05-01 12:57 54.02100 -18.61285 38235 ft 492 kts 271°
2026-05-01 12:58 54.01987 -18.72886 38234 ft 491 kts 271°
2026-05-01 12:59 54.01796 -18.90338 38232 ft 491 kts 271°
2026-05-01 12:59 54.01579 -19.07798 38239 ft 490 kts 271°
2026-05-01 13:00 54.01340 -19.25140 38242 ft 489 kts 271°
2026-05-01 13:01 54.01074 -19.42510 38244 ft 489 kts 271°
2026-05-01 13:02 54.00783 -19.59879 38255 ft 488 kts 271°
2026-05-01 13:07 53.94836 -20.86142 38272 ft 486 kts 266°
2026-05-01 13:08 53.94102 -20.97566 38277 ft 485 kts 266°
2026-05-01 13:08 53.93356 -21.08985 38280 ft 485 kts 266°
2026-05-01 13:09 53.92605 -21.20313 38284 ft 485 kts 266°
2026-05-01 13:09 53.91840 -21.31702 38287 ft 485 kts 266°
2026-05-01 13:10 53.91064 -21.43075 38292 ft 485 kts 266°
2026-05-01 13:10 53.90276 -21.54460 38290 ft 484 kts 266°
2026-05-01 13:11 53.89479 -21.65825 38296 ft 484 kts 266°
2026-05-01 13:11 53.88671 -21.77183 38299 ft 484 kts 266°
2026-05-01 13:12 53.87852 -21.88540 38301 ft 484 kts 266°
2026-05-01 13:12 53.87028 -21.99816 38301 ft 484 kts 266°
2026-05-01 13:13 53.86188 -22.11159 38309 ft 484 kts 265°
2026-05-01 13:13 53.85339 -22.22488 38309 ft 484 kts 265°
2026-05-01 13:14 53.84482 -22.33758 38307 ft 484 kts 265°
2026-05-01 13:14 53.83612 -22.45071 38309 ft 484 kts 265°
2026-05-01 13:15 53.82729 -22.56397 38312 ft 484 kts 265°
2026-05-01 13:15 53.81837 -22.67706 38317 ft 483 kts 265°
2026-05-01 13:16 53.80939 -22.78949 38324 ft 483 kts 265°
2026-05-01 13:16 53.80025 -22.90246 38317 ft 483 kts 265°
2026-05-01 13:17 53.78169 -23.12802 38326 ft 483 kts 265°
2026-05-01 13:18 53.76908 -23.27820 38329 ft 483 kts 265°
2026-05-01 13:18 53.75951 -23.39079 38332 ft 483 kts 264°
2026-05-01 13:19 53.74825 -23.52151 38335 ft 483 kts 264°
2026-05-01 13:20 53.73511 -23.67194 38334 ft 483 kts 264°
2026-05-01 13:20 53.72516 -23.78433 38338 ft 483 kts 264°
2026-05-01 13:21 53.71011 -23.95212 38342 ft 483 kts 264°
2026-05-01 13:21 53.69989 -24.06449 38345 ft 482 kts 264°
2026-05-01 13:22 53.68960 -24.17646 38344 ft 482 kts 264°
2026-05-01 13:22 53.67918 -24.28861 38350 ft 482 kts 264°
2026-05-01 13:23 53.66875 -24.39976 38353 ft 482 kts 264°
2026-05-01 13:23 53.65814 -24.51163 38352 ft 482 kts 264°
2026-05-01 13:24 53.64744 -24.62334 38358 ft 482 kts 264°
2026-05-01 13:25 53.63117 -24.79097 38358 ft 481 kts 264°
2026-05-01 13:25 53.62027 -24.90185 38365 ft 481 kts 264°
2026-05-01 13:26 53.60920 -25.01336 38360 ft 481 kts 263°
2026-05-01 13:26 53.59804 -25.12475 38368 ft 481 kts 263°
2026-05-01 13:27 53.58679 -25.23594 38370 ft 481 kts 263°
2026-05-01 13:27 53.56978 -25.40194 38376 ft 480 kts 263°
2026-05-01 13:28 53.55250 -25.56826 38376 ft 479 kts 263°
2026-05-01 13:29 53.52914 -25.78950 38381 ft 479 kts 263°
2026-05-01 13:31 53.49340 -26.12016 38385 ft 479 kts 263°
2026-05-01 13:32 53.46295 -26.39510 38395 ft 479 kts 263°
2026-05-01 13:33 53.43178 -26.67039 38406 ft 480 kts 263°
2026-05-01 13:34 53.40643 -26.88993 38410 ft 480 kts 263°
2026-05-01 13:35 53.38711 -27.05486 38411 ft 480 kts 262°
2026-05-01 13:36 53.36753 -27.21975 38414 ft 480 kts 262°
2026-05-01 13:36 53.34770 -27.38478 38420 ft 481 kts 262°
2026-05-01 13:37 53.33437 -27.49455 38415 ft 481 kts 262°
2026-05-01 13:37 53.32094 -27.60426 38423 ft 480 kts 262°
2026-05-01 13:38 53.30067 -27.76824 38419 ft 480 kts 262°
2026-05-01 13:39 53.28696 -27.87800 38432 ft 480 kts 262°
2026-05-01 13:39 53.27317 -27.98763 38420 ft 480 kts 262°
2026-05-01 13:40 53.25940 -28.09619 38435 ft 480 kts 262°
2026-05-01 13:40 53.24542 -28.20546 38440 ft 480 kts 262°
2026-05-01 13:41 53.23134 -28.31476 38437 ft 480 kts 262°
2026-05-01 13:41 53.21719 -28.42366 38437 ft 479 kts 262°
2026-05-01 13:42 53.20295 -28.53251 38439 ft 479 kts 262°
2026-05-01 13:42 53.18862 -28.64120 38437 ft 479 kts 262°
2026-05-01 13:43 53.17427 -28.74923 38443 ft 479 kts 261°
2026-05-01 13:43 53.15971 -28.85800 38444 ft 478 kts 261°
2026-05-01 13:44 53.14509 -28.96640 38450 ft 478 kts 261°
2026-05-01 13:44 53.13038 -29.07468 38451 ft 478 kts 261°
2026-05-01 13:45 53.11559 -29.18269 38456 ft 478 kts 261°
2026-05-01 13:45 53.10070 -29.29072 38456 ft 478 kts 261°
2026-05-01 13:46 53.08566 -29.39896 38454 ft 478 kts 261°
2026-05-01 13:46 53.07160 -29.49946 38457 ft 478 kts 261°
2026-05-01 13:47 53.06717 -29.53101 38461 ft 477 kts 261°
2026-05-01 13:48 52.97900 -30.36551 38467 ft 470 kts 268°
2026-05-01 13:48 52.94653 -30.89382 38483 ft 471 kts 267°
2026-05-01 13:49 52.91178 -31.41957 38488 ft 472 kts 266°
2026-05-01 13:49 52.89830 -31.61436 38491 ft 473 kts 266°
2026-05-01 13:50 52.89191 -31.70527 38490 ft 473 kts 265°
2026-05-01 13:50 52.84090 -32.39647 38501 ft 473 kts 264°
2026-05-01 13:51 52.79973 -32.91718 38517 ft 473 kts 264°
2026-05-01 13:51 52.75626 -33.43724 38515 ft 474 kts 263°
2026-05-01 13:52 52.71032 -33.95848 38513 ft 474 kts 262°
2026-05-01 13:52 52.66224 -34.47700 38526 ft 474 kts 261°
2026-05-01 13:53 52.61212 -34.99217 38526 ft 475 kts 261°
2026-05-01 13:53 52.53407 -35.75208 38577 ft 479 kts 259°
2026-05-01 13:54 52.52281 -35.86071 38609 ft 480 kts 259°
2026-05-01 13:54 52.51111 -35.96893 38548 ft 480 kts 258°
2026-05-01 13:55 52.49909 -36.07710 38531 ft 481 kts 258°
2026-05-01 13:55 52.48702 -36.18593 38541 ft 481 kts 258°
2026-05-01 13:56 52.40972 -36.86773 38541 ft 480 kts 257°
2026-05-01 13:56 52.34803 -37.38720 38537 ft 483 kts 257°
2026-05-01 13:57 52.29459 -37.82144 38528 ft 485 kts 256°
2026-05-01 13:57 52.21707 -38.42791 38540 ft 488 kts 255°
2026-05-01 13:58 52.14815 -38.94594 38536 ft 490 kts 255°
2026-05-01 13:58 52.07650 -39.46560 38533 ft 492 kts 254°
2026-05-01 13:59 52.00333 -39.98407 38533 ft 494 kts 257°
2026-05-01 13:59 51.97028 -40.51495 38535 ft 497 kts 262°
2026-05-01 14:00 51.94306 -40.95265 38532 ft 495 kts 261°
2026-05-01 14:00 51.89438 -41.67677 38529 ft 495 kts 261°
2026-05-01 14:01 51.87468 -41.95257 38527 ft 495 kts 261°
2026-05-01 14:01 51.86010 -42.15115 38524 ft 491 kts 261°
2026-05-01 14:02 51.79625 -42.96884 38521 ft 490 kts 261°
2026-05-01 14:02 51.75222 -43.49327 38520 ft 488 kts 260°
2026-05-01 14:03 51.70622 -44.01268 38503 ft 488 kts 260°
2026-05-01 14:03 51.65781 -44.53245 38499 ft 487 kts 259°
2026-05-01 14:04 51.60704 -45.05157 38515 ft 487 kts 259°
2026-05-01 14:04 51.56320 -45.48126 38503 ft 487 kts 259°
2026-05-01 14:05 51.50469 -46.03099 38500 ft 486 kts 258°
2026-05-01 14:05 51.45740 -46.45778 38510 ft 486 kts 258°
2026-05-01 14:06 51.39893 -46.96594 38495 ft 486 kts 258°
2026-05-01 14:06 51.33783 -47.47629 38493 ft 486 kts 258°
2026-05-01 14:07 51.27401 -47.98931 38485 ft 487 kts 257°
2026-05-01 14:08 51.17455 -48.75263 38478 ft 489 kts 257°
2026-05-01 14:08 51.10482 -49.26453 38464 ft 489 kts 257°
2026-05-01 14:09 51.03331 -49.77099 38456 ft 490 kts 256°
2026-05-01 14:09 50.93586 -50.26839 38440 ft 490 kts 248°
2026-05-01 14:10 50.81687 -50.75454 38433 ft 490 kts 248°
2026-05-01 14:10 50.69623 -51.23720 38422 ft 489 kts 248°
2026-05-01 14:11 50.57453 -51.71383 38409 ft 487 kts 247°
2026-05-01 14:11 50.39599 -52.30089 38398 ft 485 kts 240°
2026-05-01 14:12 50.36350 -52.39377 38396 ft 484 kts 240°
2026-05-01 14:12 50.33101 -52.48640 38390 ft 484 kts 240°
2026-05-01 14:13 50.29845 -52.57887 38390 ft 483 kts 240°
2026-05-01 14:13 50.26589 -52.67101 38384 ft 483 kts 240°
2026-05-01 14:14 50.23331 -52.76288 38380 ft 483 kts 240°
2026-05-01 14:14 50.20075 -52.85432 38380 ft 482 kts 240°
2026-05-01 14:15 50.16801 -52.94595 38379 ft 482 kts 240°
2026-05-01 14:15 50.13491 -53.03827 38377 ft 481 kts 240°
2026-05-01 14:16 50.10207 -53.12951 38370 ft 481 kts 239°
2026-05-01 14:16 50.06939 -53.21999 38366 ft 481 kts 239°
2026-05-01 14:17 50.03648 -53.31082 38367 ft 481 kts 239°
2026-05-01 14:17 50.00354 -53.40138 38365 ft 480 kts 239°
2026-05-01 14:18 49.97047 -53.49200 38362 ft 480 kts 239°
2026-05-01 14:18 49.94300 -53.56705 38359 ft 480 kts 239°
2026-05-01 14:19 49.90432 -53.67233 38359 ft 480 kts 239°
2026-05-01 14:19 49.87114 -53.76229 38353 ft 479 kts 239°
2026-05-01 14:20 49.82135 -53.89672 38351 ft 479 kts 239°
2026-05-01 14:21 49.78823 -53.98575 38347 ft 479 kts 239°
2026-05-01 14:21 49.75473 -54.07550 38344 ft 478 kts 239°
2026-05-01 14:22 49.70459 -54.20926 38340 ft 478 kts 239°
2026-05-01 14:22 49.67129 -54.29770 38337 ft 478 kts 238°
2026-05-01 14:23 49.63775 -54.38647 38336 ft 478 kts 238°
2026-05-01 14:23 49.60409 -54.47528 38327 ft 478 kts 238°
2026-05-01 14:24 49.57041 -54.56384 38327 ft 477 kts 238°
2026-05-01 14:24 49.53695 -54.65150 38320 ft 477 kts 238°
2026-05-01 14:25 49.50318 -54.73970 38315 ft 477 kts 238°
2026-05-01 14:25 49.46931 -54.82785 38314 ft 477 kts 238°
2026-05-01 14:26 49.41841 -54.95976 38307 ft 477 kts 238°
2026-05-01 14:27 49.38882 -55.03616 38311 ft 477 kts 238°
2026-05-01 14:27 49.35480 -55.12370 38302 ft 477 kts 238°
2026-05-01 14:28 49.30382 -55.25437 38299 ft 477 kts 238°
2026-05-01 14:28 49.26960 -55.34171 38303 ft 477 kts 238°
2026-05-01 14:29 49.23533 -55.42888 38302 ft 477 kts 238°
2026-05-01 14:30 49.16656 -55.60299 38299 ft 477 kts 238°
2026-05-01 14:31 49.11487 -55.73309 38293 ft 477 kts 238°
2026-05-01 14:31 49.08052 -55.81919 38294 ft 477 kts 238°
2026-05-01 14:32 49.04587 -55.90577 38287 ft 477 kts 238°
2026-05-01 14:32 49.01111 -55.99235 38283 ft 477 kts 238°
2026-05-01 14:33 48.97966 -56.07043 38267 ft 477 kts 237°
2026-05-01 14:33 48.94486 -56.15655 38285 ft 477 kts 237°
2026-05-01 14:34 48.91020 -56.24208 38262 ft 476 kts 237°
2026-05-01 14:34 48.87531 -56.32788 38278 ft 476 kts 237°
2026-05-01 14:35 48.84036 -56.41354 38276 ft 476 kts 237°
2026-05-01 14:35 48.80540 -56.49898 38254 ft 475 kts 237°
2026-05-01 14:36 48.77062 -56.58370 38265 ft 475 kts 237°
2026-05-01 14:36 48.73557 -56.66880 38246 ft 475 kts 237°
2026-05-01 14:37 48.70048 -56.75372 38244 ft 474 kts 237°
2026-05-01 14:37 48.66543 -56.83829 38243 ft 474 kts 237°
2026-05-01 14:38 48.63013 -56.92319 38236 ft 474 kts 237°
2026-05-01 14:38 48.59489 -57.00766 38233 ft 474 kts 236°
2026-05-01 14:39 48.55979 -57.09154 38240 ft 473 kts 236°
2026-05-01 14:39 48.52450 -57.17559 38238 ft 473 kts 236°
2026-05-01 14:40 48.48909 -57.25968 38229 ft 473 kts 236°
2026-05-01 14:40 48.45389 -57.34303 38230 ft 473 kts 236°
2026-05-01 14:41 48.41840 -57.42678 38224 ft 473 kts 236°
2026-05-01 14:41 48.38293 -57.51024 38219 ft 472 kts 236°
2026-05-01 14:42 48.34750 -57.59335 38217 ft 471 kts 236°
2026-05-01 14:42 48.31202 -57.67633 38210 ft 471 kts 236°
2026-05-01 14:43 48.27653 -57.75906 38209 ft 470 kts 236°
2026-05-01 14:43 48.24107 -57.84148 38201 ft 469 kts 236°
2026-05-01 14:44 48.20580 -57.92320 38199 ft 468 kts 236°
2026-05-01 14:44 48.15256 -58.04610 38192 ft 467 kts 236°
2026-05-01 14:45 48.09940 -58.16826 38185 ft 466 kts 236°
2026-05-01 14:46 48.06393 -58.24947 38181 ft 465 kts 236°
2026-05-01 14:46 48.01073 -58.37081 38179 ft 464 kts 236°
2026-05-01 14:47 47.97532 -58.45130 38179 ft 463 kts 236°
2026-05-01 14:48 47.92219 -58.57158 38176 ft 462 kts 236°
2026-05-01 14:48 47.86905 -58.69138 38178 ft 460 kts 236°
2026-05-01 14:49 47.79826 -58.85015 38172 ft 458 kts 235°
2026-05-01 14:50 47.72746 -59.00800 38165 ft 456 kts 235°
2026-05-01 14:51 47.55771 -59.38252 38139 ft 450 kts 234°
2026-05-01 14:52 47.30396 -59.93347 38105 ft 452 kts 234°
2026-05-01 14:53 47.04784 -60.47855 38063 ft 454 kts 233°
2026-05-01 14:53 46.87407 -60.84233 38007 ft 454 kts 232°
2026-05-01 14:54 46.72861 -61.14326 37897 ft 455 kts 232°
2026-05-01 14:54 46.55213 -61.50401 37877 ft 456 kts 231°
2026-05-01 14:55 46.37630 -61.85887 37912 ft 455 kts 231°
2026-05-01 14:55 46.33364 -61.94430 37914 ft 455 kts 231°
2026-05-01 14:56 46.29653 -62.01845 37916 ft 455 kts 231°
2026-05-01 14:56 46.25937 -62.09249 37915 ft 454 kts 231°
2026-05-01 14:57 46.22209 -62.16657 37910 ft 454 kts 231°
2026-05-01 14:57 46.16609 -62.27746 37894 ft 454 kts 231°
2026-05-01 14:58 46.12895 -62.35074 37894 ft 454 kts 231°
2026-05-01 14:58 46.09161 -62.42423 37886 ft 454 kts 231°
2026-05-01 14:59 46.05420 -62.49767 37879 ft 453 kts 231°
2026-05-01 14:59 46.01683 -62.57083 37879 ft 453 kts 231°
2026-05-01 15:00 45.96089 -62.67998 37865 ft 451 kts 231°
2026-05-01 15:01 45.92356 -62.75259 37853 ft 451 kts 231°
2026-05-01 15:01 45.88608 -62.82530 37850 ft 450 kts 231°
2026-05-01 15:02 45.84885 -62.89736 37845 ft 449 kts 231°
2026-05-01 15:02 45.81152 -62.96940 37834 ft 449 kts 231°
2026-05-01 15:03 45.77413 -63.04140 37830 ft 448 kts 230°
2026-05-01 15:03 45.73681 -63.11308 37830 ft 448 kts 230°
2026-05-01 15:04 45.69949 -63.18456 37827 ft 447 kts 230°
2026-05-01 15:04 45.66241 -63.25541 37828 ft 447 kts 230°
2026-05-01 15:05 45.62509 -63.32654 37829 ft 446 kts 230°
2026-05-01 15:05 45.58769 -63.39764 37828 ft 446 kts 230°
2026-05-01 15:06 45.55030 -63.46855 37823 ft 446 kts 230°
2026-05-01 15:06 45.51291 -63.53927 37820 ft 446 kts 230°
2026-05-01 15:07 45.47556 -63.60974 37816 ft 445 kts 230°
2026-05-01 15:07 45.43813 -63.68021 37821 ft 445 kts 229°
2026-05-01 15:08 45.40094 -63.75003 37814 ft 446 kts 229°
2026-05-01 15:08 45.36312 -63.82087 37811 ft 446 kts 229°
2026-05-01 15:09 45.32573 -63.89072 37805 ft 447 kts 229°
2026-05-01 15:09 45.28796 -63.96110 37803 ft 447 kts 229°
2026-05-01 15:10 45.25373 -64.02474 37794 ft 447 kts 229°
2026-05-01 15:10 45.19688 -64.13013 37791 ft 448 kts 229°
2026-05-01 15:11 45.14002 -64.23515 37782 ft 449 kts 229°
2026-05-01 15:12 45.10191 -64.30531 37778 ft 449 kts 229°
2026-05-01 15:12 45.04450 -64.41070 37778 ft 450 kts 229°
2026-05-01 15:14 44.94857 -64.58592 37779 ft 450 kts 228°
2026-05-01 15:14 44.89082 -64.69088 37778 ft 451 kts 228°
2026-05-01 15:15 44.81367 -64.83052 37780 ft 451 kts 228°
2026-05-01 15:16 44.73629 -64.96988 37765 ft 451 kts 228°
2026-05-01 15:18 44.63923 -65.14372 37775 ft 452 kts 228°
2026-05-01 15:19 44.56140 -65.28236 37776 ft 453 kts 228°
2026-05-01 15:19 44.50270 -65.38651 37789 ft 453 kts 228°
2026-05-01 15:20 44.44404 -65.49019 37785 ft 454 kts 228°
2026-05-01 15:21 44.40466 -65.55966 37778 ft 455 kts 228°
2026-05-01 15:21 44.36513 -65.62913 37787 ft 456 kts 228°
2026-05-01 15:22 44.30560 -65.73337 37790 ft 457 kts 228°
2026-05-01 15:22 44.26604 -65.80248 37785 ft 458 kts 228°
2026-05-01 15:23 44.22613 -65.87204 37796 ft 459 kts 228°
2026-05-01 15:23 44.18601 -65.94181 37792 ft 460 kts 228°
2026-05-01 15:24 44.14592 -66.01135 37786 ft 460 kts 228°
2026-05-01 15:24 44.10570 -66.08096 37788 ft 461 kts 228°
2026-05-01 15:25 44.06534 -66.15064 37790 ft 461 kts 228°
2026-05-01 15:25 44.02497 -66.22016 37788 ft 462 kts 228°
2026-05-01 15:26 43.98468 -66.28939 37793 ft 462 kts 228°
2026-05-01 15:26 43.94411 -66.35890 37796 ft 462 kts 228°
2026-05-01 15:27 43.90353 -66.42829 37799 ft 463 kts 228°
2026-05-01 15:28 43.84236 -66.53255 37805 ft 464 kts 229°
2026-05-01 15:28 43.80155 -66.60188 37807 ft 464 kts 229°
2026-05-01 15:29 43.74049 -66.70532 37812 ft 464 kts 229°
2026-05-01 15:30 43.65835 -66.84379 37819 ft 465 kts 229°
2026-05-01 15:31 43.54146 -67.05719 37821 ft 466 kts 237°
2026-05-01 15:32 43.47635 -67.21210 37831 ft 465 kts 238°
2026-05-01 15:34 43.37894 -67.44230 37830 ft 463 kts 238°